Massena, NY

4:24 AM EDT on August 26, 2019 (GMT -0400)
Massena International-Richards

Weather History for KMSS - July, 2019

Change the Weather History Date:

Friday, July 19, 2019

  Actual Average Record
Temperature  
Mean Temperature 76 °F 69 °F  
Max Temperature 89 °F 80 °F 93 °F (1991)
Min Temperature 64 °F 58 °F 42 °F (1970)
Degree Days  
Heating Degree Days 0 1  
Month to date heating degree days 19  
Since 1 June heating degree days 115  
Since 1 July heating degree days 19  
Cooling Degree Days 11 5  
Month to date cooling degree days 92  
Year to date cooling degree days 181  
Since 1 June cooling degree days 167  
Growing Degree Days 26 (Base 50)    
Moisture  
Dew Point 70 °F    
Average Humidity 75    
Maximum Humidity 93    
Minimum Humidity 61    
Precipitation  
Precipitation 0.00 in 0.12 in 1.54 in (1959)
Month to date precipitation 2.13  
Year to date precipitation 17.58  
Sea Level Pressure  
Sea Level Pressure 29.75 in    
Wind  
Wind Speed 7 mph (SW)    
Max Wind Speed 16 mph    
Max Gust Speed 26 mph    
Visibility 10 miles    
Events      
T = Trace of Precipitation, MM = Missing Value Source: NWS Daily Summary

Daily Weather History Graph

Daily Weather History Graph

Search for Another Location

Airport or City:

Astronomy

Jul. 19, 2019 Rise Set
Actual Time 5:30 AM EDT 8:40 PM EDT
Civil Twilight 4:55 AM EDT 9:15 PM EDT
Nautical Twilight 4:09 AM EDT 10:00 PM EDT
Astronomical Twilight 3:13 AM EDT 10:56 PM EDT
Moon 10:31 PM EDT (7/19) 7:58 AM EDT (7/19)
Length of Visible Light 16h 19m
Length of Day
15h 09m
Waning Gibbous, 93% of the Moon is Illuminated
Jul 19
Waning Gibbous
Jul 24
Last Quarter
Jul 31
New
Aug 7
First Quarter
Aug 15
Full

Hourly Weather History & Observations

Time (EDT) Temp. Heat Index Dew Point Humidity Pressure Visibility Wind Dir Wind Speed Gust Speed Precip Events Conditions
12:53 AM 64.9 °F - 62.1 °F 90% 29.82 in 10.0 mi Calm Calm - N/A   Clear
1:53 AM 64.9 °F - 61.0 °F 87% 29.81 in 10.0 mi Calm Calm - N/A   Clear
2:53 AM 66.9 °F - 62.1 °F 84% 29.80 in 10.0 mi Calm Calm - N/A   Scattered Clouds
3:53 AM 66.0 °F - 64.0 °F 93% 29.79 in 10.0 mi SSW 4.6 mph - N/A   Clear
4:53 AM 70.0 °F - 66.9 °F 90% 29.76 in 10.0 mi South 8.1 mph - N/A   Clear
5:53 AM 72.0 °F - 68.0 °F 87% 29.75 in 10.0 mi SSW 8.1 mph - N/A   Scattered Clouds
6:53 AM 75.0 °F - 69.1 °F 82% 29.76 in 10.0 mi SW 9.2 mph - N/A   Scattered Clouds
7:53 AM 78.1 °F - 69.1 °F 74% 29.76 in 10.0 mi SW 15.0 mph 20.7 mph N/A   Scattered Clouds
8:53 AM 81.0 °F 84.4 °F 70.0 °F 69% 29.75 in 10.0 mi SW 16.1 mph 21.9 mph N/A   Clear
9:53 AM 82.9 °F 88.0 °F 72.0 °F 69% 29.75 in 10.0 mi SW 12.7 mph - N/A   Partly Cloudy
10:38 AM 84.0 °F 89.6 °F 72.0 °F 67% 29.75 in 10.0 mi SSW 13.8 mph - N/A   Mostly Cloudy
10:53 AM 84.0 °F 89.6 °F 72.0 °F 67% 29.75 in 10.0 mi WSW 8.1 mph - N/A   Mostly Cloudy
11:53 AM 86.0 °F 93.0 °F 73.0 °F 65% 29.75 in 10.0 mi SW 11.5 mph - N/A   Mostly Cloudy
12:53 PM 87.1 °F 94.5 °F 73.0 °F 63% 29.73 in 10.0 mi WSW 12.7 mph - N/A   Mostly Cloudy
1:53 PM 86.0 °F 92.2 °F 72.0 °F 63% 29.74 in 10.0 mi WSW 12.7 mph - N/A   Mostly Cloudy
2:53 PM 88.0 °F 95.6 °F 73.0 °F 61% 29.73 in 10.0 mi SW 12.7 mph 26.5 mph N/A   Partly Cloudy
4:53 PM 87.1 °F 96.3 °F 75.0 °F 67% 29.72 in 10.0 mi SW 16.1 mph 21.9 mph N/A   Partly Cloudy
5:53 PM 86.0 °F 93.8 °F 73.9 °F 67% 29.71 in 10.0 mi SW 10.4 mph - N/A   Partly Cloudy
6:53 PM 86.0 °F 93.8 °F 73.9 °F 67% 29.71 in 10.0 mi SSW 10.4 mph - N/A   Clear
7:53 PM 84.0 °F 90.2 °F 73.0 °F 69% 29.71 in 10.0 mi SW 11.5 mph - N/A   Clear
8:53 PM 82.0 °F 87.4 °F 73.0 °F 74% 29.72 in 10.0 mi SSW 12.7 mph - N/A   Clear
9:53 PM 81.0 °F 85.8 °F 73.0 °F 77% 29.74 in 10.0 mi SW 15.0 mph 20.7 mph N/A   Clear
10:53 PM 79.0 °F - 73.0 °F 82% 29.74 in 10.0 mi SW 10.4 mph - N/A   Clear
11:53 PM 77.0 °F - 71.1 °F 82% 29.76 in 10.0 mi SW 11.5 mph - N/A   Clear